Capitol Logistics 941


EGNX
East Midlands Airport
Derby, GB
EHAM
Schiphol International Airport
Amsterdam, NL

Activity Log

Date Flight Route Aircraft Duration
10/22/2019 CPX941 Not Available B738 1h 04m
10/19/2019 CPX941 N0388F230 DTY3N DTY L608 ADMIS M183 REDFA REDF1A B738 1h 06m

Route Details

Aircraft Information
Primary: Boeing 737-800BCF
Backup: Not Available
Route Data
Distance: 226nm
Sched. Duration: 0h 35m
Avg. Duration: 1h 05m (+70m)
Times Flown: 2
Recm'd Route: Not Available
Planned Altitude: 23,000ft
Origin Wx: EGNX 061220Z 24018KT 9999 FEW046 15/03 Q1016
Dest. Wx: EHAM 061225Z 20013KT 170V230 CAVOK 21/06 Q1017 NOSIG
Notes:

Financial History
Total Freight: 62,305lbs
Average Load: 31,153lbs/flt
Fuel Used: 11,729lbs
Avg. Fuel Used: 5,865lbs/flt
Fuel Expense: $9,383
Avg. Fuel Expense: $4,692
Avg. Fuel Cost: $0.80/lbs
Total Gross Income: $124,610
Pilot Pay: $458
Total Expenses: $13,562
Total Revenue: $101,158
Average Revenue: $62,305.00